Location: Zagreb
(45.8000°N, 16.0000°E)
Time: 12:07:43
(UTC+01:00)

Vanguard 1 Rocket - Pass Details

Date: 06 October 2020
Orbit: 656 x 4221 km, 34.3° (Epoch: 28 October)

Event Time Altitude Azimuth Distance (km) Brightness Sun altitude
Rises 16:01:59 0° 216° (SW) 3,852 11.9 22.5°
Reaches altitude 10° 16:04:32 10° 205° (SSW) 3,204 11.4 22.1°
Maximum altitude 16:11:34 31° 146° (SE) 2,781 10.0 21.1°
Drops below altitude 10° 16:23:28 10° 92° (E) 5,529 11.0 19.3°
Sets 16:29:38 0° 85° (E) 7,163 11.4 18.4°
